Location: Lafig�re
(44.4503°N, 4.0357°E)
Time: 10:00:29
(UTC+00:00)

Cosmos 2150 Rocket - Pass Details

Date: 23 January 2021
Orbit: 748 x 808 km, 74.0° (Epoch: 07 March)

Event Time Altitude Azimuth Distance (km) Brightness Sun altitude
Exits shadow 05:04:50 - 349° (N) 2,692 6.7 -22.4°
Reaches altitude 10° 05:05:48 10° 353° (N) 2,345 6.4 -22.2°
Maximum altitude 05:10:47 39° 62° (ENE) 1,178 5.4 -21.3°
Drops below altitude 10° 05:15:48 10° 130° (SE) 2,366 7.3 -20.4°
Sets 05:18:22 0° 138° (SE) 3,299 8.1 -20.0°
